Time,TemperatureF,DewpointF,PressureIn,WindDirection,WindDirectionDegrees,WindSpeedMPH,WindSpeedGustMPH,Humidity,HourlyPrecipIn,Conditions,Clouds,dailyrainin,SoftwareType,DateUTC
2013-04-10 00:00:00,45.5,44.2,29.91,NNE,19,1.0,10.0,95,0.00,,,0.63,Wunderground v.1.15,2013-04-10 04:00:00,
2013-04-10 00:05:00,45.5,44.2,29.91,North,349,2.0,10.0,95,0.00,,,0.00,Wunderground v.1.15,2013-04-10 04:05:00,
2013-04-10 00:10:00,45.5,44.2,29.92,North,351,3.0,10.0,95,0.00,,,0.01,Wunderground v.1.15,2013-04-10 04:10:00,
2013-04-10 00:14:00,45.6,44.3,29.92,NNW,333,3.0,10.0,95,0.00,,,0.01,Wunderground v.1.15,2013-04-10 04:14:00,
2013-04-10 00:20:00,45.6,44.3,29.92,North,355,3.0,10.0,95,0.06,,,0.02,Wunderground v.1.15,2013-04-10 04:20:00,
2013-04-10 00:25:00,45.6,44.3,29.92,NNW,344,3.0,10.0,95,0.06,,,0.02,Wunderground v.1.15,2013-04-10 04:25:00,
2013-04-10 00:30:00,45.2,43.9,29.92,North,360,3.0,10.0,95,0.04,,,0.02,Wunderground v.1.15,2013-04-10 04:30:00,
2013-04-10 00:35:00,44.7,43.4,29.92,North,5,4.0,10.0,95,0.00,,,0.02,Wunderground v.1.15,2013-04-10 04:35:00,
2013-04-10 00:40:00,44.2,42.9,29.92,North,5,4.0,4.0,95,0.00,,,0.03,Wunderground v.1.15,2013-04-10 04:40:00,
2013-04-10 00:45:00,44.1,42.8,29.93,North,5,3.0,10.0,95,0.00,,,0.03,Wunderground v.1.15,2013-04-10 04:45:00,
2013-04-10 09:05:00,43.9,43.1,29.99,North,9,0.0,0.0,97,0.00,,,0.09,Wunderground v.1.15,2013-04-10 13:05:00,
2013-04-10 09:10:00,44.0,43.2,29.98,North,9,0.0,0.0,97,0.00,,,0.09,Wunderground v.1.15,2013-04-10 13:10:00,
2013-04-10 09:15:00,44.0,43.2,29.98,North,9,1.0,2.0,97,0.00,,,0.09,Wunderground v.1.15,2013-04-10 13:15:00,
2013-04-10 09:25:00,43.7,42.9,29.99,NNW,348,1.0,4.0,97,0.00,,,0.09,Wunderground v.1.15,2013-04-10 13:25:00,
2013-04-10 09:30:00,43.4,42.6,29.99,North,5,2.0,4.0,97,0.00,,,0.09,Wunderground v.1.15,2013-04-10 13:30:00,
2013-04-10 09:40:00,43.1,42.3,29.99,NNE,19,1.0,5.0,97,0.00,,,0.09,Wunderground v.1.15,2013-04-10 13:40:00,
2013-04-10 09:50:00,42.9,42.1,29.97,North,355,1.0,1.0,97,0.00,,,0.09,Wunderground v.1.15,2013-04-10 13:50:00,
2013-04-10 09:55:00,42.7,41.9,29.98,North,355,1.0,1.0,97,0.00,,,0.09,Wunderground v.1.15,2013-04-10 13:55:00,
2013-04-10 10:00:00,42.7,41.9,29.97,North,355,0.0,0.0,97,0.00,,,0.09,Wunderground v.1.15,2013-04-10 14:00:00,
2013-04-10 10:05:00,42.9,42.1,29.98,North,355,0.0,4.0,97,0.00,,,0.09,Wunderground v.1.15,2013-04-10 14:05:00,
2013-04-10 10:10:00,43.1,42.3,29.97,North,350,0.0,4.0,97,0.00,,,0.09,Wunderground v.1.15,2013-04-10 14:10:00,
2013-04-10 10:20:00,42.9,42.1,29.97,NE,37,0.0,4.0,97,0.00,,,0.09,Wunderground v.1.15,2013-04-10 14:20:00,
2013-04-10 10:30:00,42.9,42.1,29.99,NNE,13,1.0,4.0,97,0.00,,,0.09,Wunderground v.1.15,2013-04-10 14:30:00,
2013-04-10 10:35:00,42.7,41.9,30.00,North,11,1.0,4.0,97,0.00,,,0.09,Wunderground v.1.15,2013-04-10 14:35:00,
2013-04-10 10:40:00,42.7,41.9,29.99,NNE,17,1.0,1.0,97,0.00,,,0.09,Wunderground v.1.15,2013-04-10 14:40:00,
2013-04-10 10:45:00,42.6,41.8,29.99,NNE,13,1.0,3.0,97,0.00,,,0.09,Wunderground v.1.15,2013-04-10 14:45:00,
2013-04-10 10:50:00,42.4,41.6,30.00,North,351,1.0,1.0,97,0.00,,,0.09,Wunderground v.1.15,2013-04-10 14:50:00,
2013-04-10 10:55:00,42.2,41.4,30.00,NNE,15,1.0,4.0,97,0.00,,,0.09,Wunderground v.1.15,2013-04-10 14:55:00,
2013-04-10 11:10:00,41.8,41.0,30.01,NW,326,2.0,4.0,97,0.35,,,0.15,Wunderground v.1.15,2013-04-10 15:10:00,
2013-04-10 11:15:00,41.7,40.9,30.00,North,360,2.0,4.0,97,0.27,,,0.17,Wunderground v.1.15,2013-04-10 15:15:00,
2013-04-10 11:20:00,41.5,40.4,29.99,North,360,2.0,2.0,96,0.26,,,0.19,Wunderground v.1.15,2013-04-10 15:20:00,
2013-04-10 11:25:00,41.4,40.3,29.99,North,360,1.0,4.0,96,0.20,,,0.21,Wunderground v.1.15,2013-04-10 15:25:00,
2013-04-10 11:34:00,41.3,40.5,29.96,North,355,1.0,4.0,97,0.13,,,0.23,Wunderground v.1.15,2013-04-10 15:34:00,
2013-04-10 11:40:00,41.1,40.3,30.01,North,11,2.0,7.0,97,0.12,,,0.24,Wunderground v.1.15,2013-04-10 15:40:00,
2013-04-10 11:45:00,40.7,39.6,30.03,North,355,4.0,7.0,96,0.08,,,0.24,Wunderground v.1.15,2013-04-10 15:45:00,
2013-04-10 11:50:00,40.6,39.5,30.01,North,355,3.0,7.0,96,0.07,,,0.25,Wunderground v.1.15,2013-04-10 15:50:00,
2013-04-10 11:55:00,40.4,39.4,30.01,NE,36,2.0,7.0,96,0.07,,,0.25,Wunderground v.1.15,2013-04-10 15:55:00,
2013-04-10 12:00:00,40.5,39.7,30.00,NNE,28,2.0,2.0,97,0.06,,,0.26,Wunderground v.1.15,2013-04-10 16:00:00,
2013-04-10 12:10:00,40.5,39.7,29.91,SE,127,1.0,5.0,97,0.05,,,0.26,Wunderground v.1.15,2013-04-10 16:10:00,
2013-04-10 12:20:00,40.7,39.9,29.95,North,5,2.0,2.0,97,0.00,,,0.26,Wunderground v.1.15,2013-04-10 16:20:00,
2013-04-10 12:25:00,41.0,40.2,29.94,North,355,2.0,4.0,97,0.00,,,0.27,Wunderground v.1.15,2013-04-10 16:25:00,
2013-04-10 12:30:00,41.1,40.3,29.95,NNE,14,2.0,2.0,97,0.00,,,0.27,Wunderground v.1.15,2013-04-10 16:30:00,
2013-04-10 12:35:00,41.0,40.2,29.96,WNW,291,1.0,3.0,97,0.00,,,0.27,Wunderground v.1.15,2013-04-10 16:35:00,
2013-04-10 12:45:00,41.9,41.1,29.94,NW,326,1.0,4.0,97,0.00,,,0.27,Wunderground v.1.15,2013-04-10 16:45:00,
2013-04-10 12:50:00,42.8,42.0,29.94,NNW,329,1.0,1.0,97,0.00,,,0.27,Wunderground v.1.15,2013-04-10 16:50:00,
2013-04-10 12:55:00,42.8,42.0,29.94,North,360,1.0,2.0,97,0.00,,,0.27,Wunderground v.1.15,2013-04-10 16:55:00,
2013-04-10 13:00:00,42.6,41.8,29.95,North,9,1.0,1.0,97,0.00,,,0.27,Wunderground v.1.15,2013-04-10 17:00:00,
2013-04-10 13:10:00,42.2,41.4,29.96,North,360,1.0,1.0,97,0.00,,,0.27,Wunderground v.1.15,2013-04-10 17:10:00,
2013-04-10 13:15:00,42.2,41.4,29.95,North,360,0.0,4.0,97,0.00,,,0.27,Wunderground v.1.15,2013-04-10 17:15:00,
2013-04-10 13:20:00,42.2,41.4,29.94,North,360,0.0,4.0,97,0.00,,,0.27,Wunderground v.1.15,2013-04-10 17:20:00,
2013-04-10 13:25:00,42.3,41.5,29.94,North,360,0.0,4.0,97,0.00,,,0.27,Wunderground v.1.15,2013-04-10 17:25:00,
2013-04-10 13:30:00,42.0,40.9,29.94,North,349,1.0,4.0,96,0.00,,,0.27,Wunderground v.1.15,2013-04-10 17:30:00,
2013-04-10 13:35:00,41.9,41.1,29.93,North,355,1.0,4.0,97,0.00,,,0.27,Wunderground v.1.15,2013-04-10 17:35:00,
2013-04-10 13:40:00,41.9,41.1,29.92,North,355,0.0,4.0,97,0.00,,,0.27,Wunderground v.1.15,2013-04-10 17:40:00,
2013-04-10 13:50:00,41.6,40.5,29.92,North,5,0.0,4.0,96,0.00,,,0.27,Wunderground v.1.15,2013-04-10 17:50:00,
2013-04-10 13:54:00,41.5,40.4,29.92,North,5,0.0,4.0,96,0.00,,,0.27,Wunderground v.1.15,2013-04-10 17:54:00,
2013-04-10 14:00:00,41.5,40.4,29.92,North,5,0.0,4.0,96,0.00,,,0.27,Wunderground v.1.15,2013-04-10 18:00:00,
2013-04-10 14:05:00,41.4,40.3,29.92,North,360,1.0,4.0,96,0.00,,,0.27,Wunderground v.1.15,2013-04-10 18:05:00,
2013-04-10 14:10:00,41.3,40.2,29.92,North,5,1.0,1.0,96,0.00,,,0.27,Wunderground v.1.15,2013-04-10 18:10:00,
2013-04-10 14:15:00,41.3,40.2,29.92,North,5,1.0,4.0,96,0.00,,,0.27,Wunderground v.1.15,2013-04-10 18:15:00,
2013-04-10 14:20:00,41.2,40.1,29.92,North,5,0.0,4.0,96,0.00,,,0.27,Wunderground v.1.15,2013-04-10 18:20:00,
2013-04-10 14:25:00,41.3,40.2,29.92,North,5,0.0,4.0,96,0.00,,,0.27,Wunderground v.1.15,2013-04-10 18:25:00,
2013-04-10 14:30:00,41.3,40.2,29.93,North,355,1.0,4.0,96,0.00,,,0.27,Wunderground v.1.15,2013-04-10 18:30:00,
2013-04-10 14:40:00,41.0,39.9,29.91,North,351,2.0,4.0,96,0.00,,,0.27,Wunderground v.1.15,2013-04-10 18:40:00,
2013-04-10 14:45:00,40.8,39.7,29.91,North,360,2.0,4.0,96,0.00,,,0.27,Wunderground v.1.15,2013-04-10 18:45:00,
2013-04-10 14:50:00,40.5,39.4,29.91,NNW,342,2.0,4.0,96,0.00,,,0.27,Wunderground v.1.15,2013-04-10 18:50:00,
2013-04-10 14:55:00,40.4,39.4,29.90,NNE,29,2.0,6.0,96,0.00,,,0.27,Wunderground v.1.15,2013-04-10 18:55:00,
2013-04-10 15:00:00,40.3,39.3,29.91,North,360,3.0,7.0,96,0.00,,,0.27,Wunderground v.1.15,2013-04-10 19:00:00,
2013-04-10 15:05:00,40.0,39.0,29.91,North,10,4.0,7.0,96,0.00,,,0.27,Wunderground v.1.15,2013-04-10 19:05:00,
2013-04-10 15:10:00,39.8,38.8,29.91,North,11,4.0,9.0,96,0.00,,,0.27,Wunderground v.1.15,2013-04-10 19:10:00,
2013-04-10 15:20:00,39.5,38.5,29.89,North,11,4.0,4.0,96,0.00,,,0.27,Wunderground v.1.15,2013-04-10 19:20:00,
2013-04-10 15:25:00,39.5,38.5,29.89,North,350,2.0,4.0,96,0.00,,,0.27,Wunderground v.1.15,2013-04-10 19:25:00,
2013-04-10 15:30:00,39.5,38.5,29.88,North,355,1.0,1.0,96,0.00,,,0.28,Wunderground v.1.15,2013-04-10 19:30:00,
2013-04-10 15:35:00,39.5,38.5,29.87,North,5,1.0,2.0,96,0.12,,,0.28,Wunderground v.1.15,2013-04-10 19:35:00,
2013-04-10 15:45:00,39.3,38.3,29.88,NNE,21,2.0,4.0,96,0.10,,,0.30,Wunderground v.1.15,2013-04-10 19:45:00,
2013-04-10 15:50:00,39.3,38.3,29.87,North,5,1.0,4.0,96,0.07,,,0.30,Wunderground v.1.15,2013-04-10 19:50:00,
2013-04-10 15:55:00,39.3,38.3,29.87,NNW,339,2.0,4.0,96,0.04,,,0.30,Wunderground v.1.15,2013-04-10 19:55:00,
2013-04-10 16:00:00,39.3,38.3,29.86,NNE,26,2.0,4.0,96,0.00,,,0.30,Wunderground v.1.15,2013-04-10 20:00:00,
2013-04-10 16:05:00,39.2,38.2,29.91,NNW,348,3.0,4.0,96,0.00,,,0.30,Wunderground v.1.15,2013-04-10 20:05:00,
2013-04-10 16:15:00,39.1,38.1,29.95,North,355,5.0,5.0,96,0.45,,,0.43,Wunderground v.1.15,2013-04-10 20:15:00,
2013-04-10 16:20:00,38.8,37.8,29.93,NE,52,4.0,4.0,96,0.13,,,0.44,Wunderground v.1.15,2013-04-10 20:20:00,
2013-04-10 16:25:00,38.7,37.7,29.89,NE,36,3.0,4.0,96,0.09,,,0.45,Wunderground v.1.15,2013-04-10 20:25:00,
2013-04-10 16:30:00,38.6,37.6,29.86,NE,38,1.0,1.0,96,0.08,,,0.45,Wunderground v.1.15,2013-04-10 20:30:00,
2013-04-10 16:35:00,38.4,37.4,29.84,NNE,16,0.0,4.0,96,0.07,,,0.46,Wunderground v.1.15,2013-04-10 20:35:00,
2013-04-10 16:40:00,38.4,37.4,29.85,ENE,77,1.0,1.0,96,0.09,,,0.47,Wunderground v.1.15,2013-04-10 20:40:00,
2013-04-10 16:50:00,38.5,37.5,29.85,NNE,33,1.0,4.0,96,0.05,,,0.47,Wunderground v.1.15,2013-04-10 20:50:00,
2013-04-10 16:55:00,38.7,37.7,29.86,NE,42,1.0,4.0,96,0.00,,,0.47,Wunderground v.1.15,2013-04-10 20:55:00,
2013-04-10 17:00:00,38.9,37.9,29.89,NNE,12,1.0,4.0,96,0.00,,,0.47,Wunderground v.1.15,2013-04-10 21:00:00,
2013-04-10 17:10:00,39.3,38.3,29.90,North,355,2.0,2.0,96,0.00,,,0.47,Wunderground v.1.15,2013-04-10 21:10:00,
2013-04-10 17:15:00,39.4,38.4,29.89,NE,39,2.0,3.0,96,0.00,,,0.47,Wunderground v.1.15,2013-04-10 21:15:00,
2013-04-10 17:20:00,39.3,38.3,29.89,NNE,28,2.0,2.0,96,0.00,,,0.47,Wunderground v.1.15,2013-04-10 21:20:00,
2013-04-10 17:25:00,39.2,38.2,29.89,North,355,2.0,4.0,96,0.00,,,0.47,Wunderground v.1.15,2013-04-10 21:25:00,
2013-04-10 17:30:00,39.1,38.1,29.89,North,350,3.0,4.0,96,0.00,,,0.47,Wunderground v.1.15,2013-04-10 21:30:00,
2013-04-10 17:35:00,39.1,38.1,29.90,North,349,3.0,4.0,96,0.00,,,0.47,Wunderground v.1.15,2013-04-10 21:35:00,
2013-04-10 17:45:00,39.1,38.1,29.90,NNE,31,3.0,5.0,96,0.00,,,0.47,Wunderground v.1.15,2013-04-10 21:45:00,
2013-04-10 17:50:00,39.0,38.0,29.90,North,5,3.0,4.0,96,0.00,,,0.47,Wunderground v.1.15,2013-04-10 21:50:00,
2013-04-10 17:55:00,39.0,38.0,29.90,NNE,17,3.0,4.0,96,0.00,,,0.47,Wunderground v.1.15,2013-04-10 21:55:00,
2013-04-10 18:05:00,39.2,38.2,29.90,NNE,28,2.0,4.0,96,0.00,,,0.47,Wunderground v.1.15,2013-04-10 22:05:00,
2013-04-10 18:10:00,39.2,38.2,29.92,North,10,2.0,4.0,96,0.00,,,0.47,Wunderground v.1.15,2013-04-10 22:10:00,
2013-04-10 18:15:00,39.3,38.5,29.92,North,350,3.0,4.0,97,0.00,,,0.47,Wunderground v.1.15,2013-04-10 22:15:00,
2013-04-10 18:20:00,39.3,38.5,29.92,North,360,2.0,4.0,97,0.00,,,0.47,Wunderground v.1.15,2013-04-10 22:20:00,
2013-04-10 18:30:00,39.4,38.6,29.93,North,9,1.0,4.0,97,0.00,,,0.47,Wunderground v.1.15,2013-04-10 22:30:00,
2013-04-10 18:35:00,39.5,38.7,29.94,North,360,2.0,4.0,97,0.00,,,0.47,Wunderground v.1.15,2013-04-10 22:35:00,
2013-04-10 18:40:00,39.6,38.8,29.94,NNW,344,1.0,4.0,97,0.00,,,0.47,Wunderground v.1.15,2013-04-10 22:40:00,
2013-04-10 18:45:00,39.6,38.6,29.95,NNW,344,2.0,4.0,96,0.00,,,0.47,Wunderground v.1.15,2013-04-10 22:45:00,
2013-04-10 18:50:00,39.7,38.7,29.95,NNW,346,2.0,2.0,96,0.00,,,0.47,Wunderground v.1.15,2013-04-10 22:50:00,
2013-04-10 18:55:00,39.7,38.7,29.96,NNE,15,2.0,4.0,96,0.00,,,0.47,Wunderground v.1.15,2013-04-10 22:55:00,
2013-04-10 19:00:00,39.8,38.8,29.95,NNE,15,1.0,1.0,96,0.00,,,0.47,Wunderground v.1.15,2013-04-10 23:00:00,
2013-04-10 19:09:00,39.9,39.1,29.94,North,349,1.0,4.0,97,0.10,,,0.49,Wunderground v.1.15,2013-04-10 23:09:00,
2013-04-10 19:15:00,40.0,39.2,29.93,NNE,15,2.0,4.0,97,0.09,,,0.49,Wunderground v.1.15,2013-04-10 23:15:00,
2013-04-10 19:20:00,40.0,39.2,29.91,NNE,27,2.0,4.0,97,0.06,,,0.50,Wunderground v.1.15,2013-04-10 23:20:00,
2013-04-10 19:25:00,40.0,39.2,29.91,North,360,2.0,4.0,97,0.06,,,0.50,Wunderground v.1.15,2013-04-10 23:25:00,
2013-04-10 19:30:00,39.9,39.1,29.91,NNE,26,2.0,2.0,97,0.05,,,0.50,Wunderground v.1.15,2013-04-10 23:30:00,
2013-04-10 19:35:00,39.9,39.1,29.92,North,351,2.0,4.0,97,0.00,,,0.50,Wunderground v.1.15,2013-04-10 23:35:00,
2013-04-10 19:40:00,40.0,39.2,29.91,NE,45,2.0,2.0,97,0.00,,,0.50,Wunderground v.1.15,2013-04-10 23:40:00,
2013-04-10 19:45:00,40.0,39.2,29.92,NNW,342,3.0,3.0,97,0.00,,,0.50,Wunderground v.1.15,2013-04-10 23:45:00,
2013-04-10 19:55:00,39.8,38.8,29.93,NNE,28,4.0,7.0,96,0.00,,,0.50,Wunderground v.1.15,2013-04-10 23:55:00,
2013-04-10 20:00:00,39.7,38.7,29.92,NW,324,4.0,4.0,96,0.00,,,0.50,Wunderground v.1.15,2013-04-11 00:00:00,
2013-04-10 20:05:00,39.6,38.8,29.93,North,5,4.0,4.0,97,0.00,,,0.50,Wunderground v.1.15,2013-04-11 00:05:00,
2013-04-10 20:10:00,39.5,38.7,29.94,North,5,3.0,3.0,97,0.00,,,0.50,Wunderground v.1.15,2013-04-11 00:10:00,
2013-04-10 20:15:00,39.4,38.6,29.94,NNE,29,3.0,4.0,97,0.00,,,0.50,Wunderground v.1.15,2013-04-11 00:15:00,
2013-04-10 20:20:00,39.3,38.5,29.94,NW,315,4.0,5.0,97,0.00,,,0.50,Wunderground v.1.15,2013-04-11 00:20:00,
2013-04-10 20:25:00,39.3,38.5,29.95,NNE,28,4.0,5.0,97,0.00,,,0.50,Wunderground v.1.15,2013-04-11 00:25:00,
2013-04-10 20:30:00,39.2,38.2,29.95,NNW,338,3.0,3.0,96,0.00,,,0.50,Wunderground v.1.15,2013-04-11 00:30:00,
2013-04-10 20:40:00,39.1,38.1,29.95,North,350,2.0,2.0,96,0.00,,,0.50,Wunderground v.1.15,2013-04-11 00:40:00,
2013-04-10 20:45:00,39.0,38.0,29.95,NE,36,2.0,4.0,96,0.00,,,0.50,Wunderground v.1.15,2013-04-11 00:45:00,
2013-04-10 20:50:00,38.9,37.9,29.95,North,349,1.0,1.0,96,0.00,,,0.50,Wunderground v.1.15,2013-04-11 00:50:00,
2013-04-10 20:55:00,38.9,37.9,29.95,North,355,1.0,4.0,96,0.00,,,0.50,Wunderground v.1.15,2013-04-11 00:55:00,
2013-04-10 21:00:00,38.8,37.8,29.96,North,350,1.0,1.0,96,0.00,,,0.50,Wunderground v.1.15,2013-04-11 01:00:00,
2013-04-10 21:05:00,38.8,37.8,29.97,NNE,18,1.0,4.0,96,0.00,,,0.50,Wunderground v.1.15,2013-04-11 01:05:00,
2013-04-10 21:10:00,38.8,38.0,29.99,NNE,17,1.0,1.0,97,0.00,,,0.50,Wunderground v.1.15,2013-04-11 01:10:00,
2013-04-10 21:20:00,38.9,38.1,30.00,NNE,17,0.0,4.0,97,0.00,,,0.50,Wunderground v.1.15,2013-04-11 01:20:00,
2013-04-10 21:25:00,39.0,38.0,30.01,NNE,17,0.0,4.0,96,0.00,,,0.50,Wunderground v.1.15,2013-04-11 01:25:00,
2013-04-10 21:30:00,39.0,38.0,30.00,NNE,17,0.0,4.0,96,0.00,,,0.50,Wunderground v.1.15,2013-04-11 01:30:00,
2013-04-10 21:35:00,39.0,38.0,30.00,NNE,13,1.0,4.0,96,0.00,,,0.50,Wunderground v.1.15,2013-04-11 01:35:00,
2013-04-10 21:40:00,39.0,38.0,30.00,NNE,12,1.0,1.0,96,0.00,,,0.50,Wunderground v.1.15,2013-04-11 01:40:00,
2013-04-10 21:45:00,39.1,38.1,30.00,North,5,1.0,4.0,96,0.00,,,0.50,Wunderground v.1.15,2013-04-11 01:45:00,
2013-04-10 21:50:00,39.0,38.0,29.99,North,5,1.0,4.0,96,0.00,,,0.50,Wunderground v.1.15,2013-04-11 01:50:00,
2013-04-10 21:59:00,39.0,38.0,29.99,North,5,0.0,4.0,96,0.00,,,0.50,Wunderground v.1.15,2013-04-11 01:59:00,
2013-04-10 22:05:00,39.0,38.0,29.99,North,5,0.0,4.0,96,0.00,,,0.50,Wunderground v.1.15,2013-04-11 02:05:00,
2013-04-10 22:10:00,39.0,38.0,29.99,North,5,0.0,4.0,96,0.00,,,0.50,Wunderground v.1.15,2013-04-11 02:10:00,
2013-04-10 22:15:00,38.9,37.9,30.00,North,5,0.0,4.0,96,0.00,,,0.50,Wunderground v.1.15,2013-04-11 02:15:00,
2013-04-10 22:20:00,38.9,37.9,29.99,North,5,1.0,1.0,96,0.00,,,0.50,Wunderground v.1.15,2013-04-11 02:20:00,
2013-04-10 22:25:00,38.8,37.8,29.98,NNW,339,1.0,3.0,96,0.00,,,0.50,Wunderground v.1.15,2013-04-11 02:25:00,
2013-04-10 22:30:00,38.8,37.8,29.99,NNW,339,1.0,4.0,96,0.00,,,0.50,Wunderground v.1.15,2013-04-11 02:30:00,
2013-04-10 22:35:00,38.7,37.7,29.99,North,355,1.0,4.0,96,0.00,,,0.50,Wunderground v.1.15,2013-04-11 02:35:00,
2013-04-10 22:45:00,38.5,37.5,29.99,North,360,1.0,4.0,96,0.00,,,0.50,Wunderground v.1.15,2013-04-11 02:45:00,
2013-04-10 22:50:00,38.4,37.4,29.99,North,360,1.0,1.0,96,0.00,,,0.50,Wunderground v.1.15,2013-04-11 02:50:00,
2013-04-10 22:55:00,38.4,37.4,29.98,North,360,0.0,2.0,96,0.00,,,0.50,Wunderground v.1.15,2013-04-11 02:55:00,
2013-04-10 23:00:00,38.3,37.3,29.98,NNE,19,1.0,4.0,96,0.00,,,0.50,Wunderground v.1.15,2013-04-11 03:00:00,
2013-04-10 23:05:00,38.3,37.3,29.98,NNE,19,1.0,4.0,96,0.00,,,0.50,Wunderground v.1.15,2013-04-11 03:05:00,
2013-04-10 23:15:00,38.3,37.3,29.99,NNE,17,1.0,4.0,96,0.00,,,0.50,Wunderground v.1.15,2013-04-11 03:15:00,
2013-04-10 23:20:00,38.3,37.3,29.99,NNE,17,1.0,4.0,96,0.00,,,0.50,Wunderground v.1.15,2013-04-11 03:20:00,
2013-04-10 23:25:00,38.3,37.3,30.00,NNE,15,1.0,1.0,96,0.00,,,0.50,Wunderground v.1.15,2013-04-11 03:25:00,
2013-04-10 23:30:00,38.2,37.2,30.00,NNE,15,0.0,4.0,96,0.00,,,0.50,Wunderground v.1.15,2013-04-11 03:30:00,
2013-04-10 23:40:00,38.2,37.2,29.99,NNE,15,0.0,4.0,96,0.00,,,0.50,Wunderground v.1.15,2013-04-11 03:40:00,
2013-04-10 23:45:00,38.2,37.2,29.99,NNE,15,0.0,4.0,96,0.00,,,0.50,Wunderground v.1.15,2013-04-11 03:45:00,
2013-04-10 23:50:00,38.2,37.2,29.99,NNE,15,0.0,4.0,96,0.00,,,0.50,Wunderground v.1.15,2013-04-11 03:50:00,
2013-04-10 23:55:00,38.2,37.2,29.98,NNE,15,0.0,4.0,96,0.00,,,0.50,Wunderground v.1.15,2013-04-11 03:55:00,